SCP
0 0 0 0 0 0 0 0 0 0 0 1 1 1 1 2 2 2 1 1 1 1 2 2 2 2 2 2 2 2 2 2 1 1 1 1 1 1 1 1 1 1 1 1
0 0 0 0 0 0 0 0 0 0 0 1 1 1 1 1 2 2 2 1 1 2 2 2 3 3 2 2 3 3 2 2 2 1 1 1 1 1 1 1 1 1 1 1
0 0 0 0 0 0 0 0 0 0 0 1 1 1 1 1 1 2 2 2 2 2 3 3 3 3 3 3 3 3 2 2 2 2 1 1 1 1 0 0 1 1 1 1
0 0 0 0 0 0 0 0 0 0 0 0 1 1 1 1 1 2 2 2 2 2 3 4 4 4 4 3 3 3 2 2 1 1 2 2 1 1 1 1 1 1 1 1
0 0 0 0 0 0 0 0 0 0 0 0 0 0 0 1 1 1 2 2 3 3 4 4 4 4 3 3 3 2 2 2 1 1 1 2 2 2 2 1 1 1 1 1
0 0 0 0 0 0 0 0 0 0 0 0 0 0 0 1 1 1 2 3 4 5 4 4 3 3 3 3 3 2 2 2 2 1 2 2 2 3 3 2 2 1 1 1
0 0 0 0 0 0 0 0 0 0 0 0 0 0 0 0 0 1 2 4 5 5 4 3 2 2 3 3 3 3 3 3 2 2 2 2 3 3 3 3 3 2 2 2
0 0 0 0 0 0 0 0 0 0 0 0 0 0 0 0 1 1 3 4 4 4 3 2 2 2 3 3 4 4 3 3 3 2 2 3 3 3 4 4 3 3 2 2
0 0 0 0 0 0 0 0 0 0 0 0 0 0 1 1 1 2 3 4 3 2 2 2 2 2 3 3 3 4 4 3 3 3 2 2 4 4 4 4 4 3 3 3
0 0 0 0 0 0 0 0 0 0 0 0 0 0 1 1 2 3 3 3 2 2 1 1 2 2 3 2 3 3 4 4 3 3 3 2 3 5 4 4 4 4 3 3
0 0 0 0 0 0 0 0 0 0 0 0 0 1 1 2 3 3 3 3 2 1 1 1 2 3 3 2 2 3 3 3 3 3 3 3 3 5 5 5 4 4 4 4
0 0 0 0 0 0 0 0 0 0 0 0 0 1 1 2 2 3 3 2 2 1 1 1 2 3 3 3 3 3 4 3 3 3 3 3 4 5 6 5 5 4 4 4
0 0 0 0 0 0 0 0 0 0 0 0 1 1 2 2 2 3 3 2 1 1 1 1 2 3 3 3 4 4 4 4 3 3 3 3 4 5 5 5 5 5 4 4
0 0 0 0 0 0 0 0 0 0 0 0 0 1 2 2 2 2 2 1 1 2 2 2 2 3 4 4 4 4 4 4 3 3 3 4 4 5 5 6 6 6 5 4
0 0 0 0 0 0 0 0 0 0 0 0 1 1 1 2 2 1 1 1 2 2 2 2 3 4 5 5 5 5 5 4 4 3 4 4 5 6 6 6 7 7 6 5
1 0 0 0 0 0 0 1 1 0 0 1 1 1 2 2 1 1 1 1 2 3 3 3 4 5 6 6 5 5 5 4 4 4 4 4 5 6 7 7 8 8 7 5
0 0 0 0 0 0 1 1 1 1 1 1 1 2 2 2 1 1 1 2 3 3 3 4 6 7 7 6 5 4 4 4 5 4 4 4 4 5 6 7 8 9 8 6
0 0 0 0 0 0 1 1 1 1 1 1 2 2 2 2 1 1 1 2 2 3 3 5 7 9 8 6 4 3 3 4 4 4 3 3 3 4 5 6 7 8 8 7
0 0 0 0 0 0 1 1 1 1 1 1 2 2 2 1 1 1 1 1 2 2 3 5 8 9 7 5 3 3 4 4 3 3 3 3 3 4 4 4 6 7 8 7
0 0 0 0 0 0 1 1 1 1 1 1 1 1 1 1 1 1 1 1 1 2 3 6 8 8 5 3 2 3 4 4 3 2 2 2 3 3 4 3 4 6 8 8
0 0 0 0 0 0 0 1 1 1 1 0 0 0 1 1 1 1 1 1 1 2 3 6 7 6 3 2 2 3 4 4 3 2 2 2 3 4 4 3 3 5 7 8
0 0 0 0 0 0 0 1 1 1 0 0 0 0 1 1 1 1 2 2 2 2 4 5 5 4 2 1 1 2 3 4 3 2 1 2 3 4 4 3 3 4 5 7
0 0 0 0 0 0 1 1 1 1 1 0 0 1 1 1 2 2 2 2 2 3 3 4 3 2 2 1 1 1 2 3 2 1 1 2 3 5 5 4 4 3 4 6
0 0 1 1 1 1 1 1 1 1 1 1 1 1 2 3 3 3 3 2 2 2 3 3 3 2 1 1 1 1 1 2 1 1 1 1 3 5 5 5 4 4 4 5
0 1 1 1 1 1 1 1 1 1 1 1 2 3 4 4 3 3 3 2 2 2 3 3 3 2 1 1 1 1 1 1 1 1 1 1 3 5 5 5 4 4 4 5
1 1 1 1 1 1 1 0 0 0 1 1 3 4 5 4 4 3 2 2 2 2 3 3 3 2 1 1 1 1 0 0 0 1 1 1 3 4 5 5 5 4 4 4
Wind_Speed
2 3 3 6 6 4 2 2 4 5 2 2 4 5 4 5 6 6 5 5 5 6 4 4 5 6 6 5 5 5 5 4 4 3 2 2 1 1 0 0 1 1 1 1
3 3 7 4 3 3 3 2 3 3 1 2 2 4 3 5 7 7 7 7 7 5 3 4 5 5 6 6 5 5 5 5 5 3 2 2 2 1 1 0 0 0 0 1
5 6 3 4 2 1 3 4 4 2 2 2 1 4 2 1 3 3 4 5 6 8 7 6 6 6 6 6 6 6 5 5 5 4 3 3 2 1 1 1 1 1 0 1
4 4 2 3 3 3 4 5 4 2 2 2 1 3 5 2 2 4 5 5 6 6 7 6 6 6 6 6 5 5 5 5 4 4 4 4 3 2 2 1 0 1 1 1
4 2 3 3 5 5 5 1 2 2 3 1 1 1 7 1 3 7 7 7 8 7 8 8 8 7 6 5 5 4 4 4 4 4 5 4 3 2 1 1 1 0 1 0
4 2 3 4 2 3 3 5 6 6 5 1 2 2 7 4 6 5 6 7 8 8 8 7 6 5 5 5 5 5 5 4 4 5 5 5 5 4 3 2 1 1 0 0
3 3 2 2 1 1 4 5 4 5 3 5 2 2 9 6 5 5 6 7 7 8 8 8 7 7 6 7 6 6 6 4 4 5 5 5 5 5 5 4 3 2 1 1
2 5 3 3 5 5 4 7 7 5 4 4 1 5 8 4 4 3 2 4 5 6 6 7 8 8 8 8 7 6 6 5 4 5 5 4 5 4 3 3 3 3 2 2
6 5 4 2 2 7 5 3 5 7 2 1 5 6 8 2 1 0 1 3 4 5 6 6 6 6 6 7 7 7 6 5 4 4 4 4 4 4 3 3 3 2 2 2
7 3 4 3 3 4 4 7 5 6 5 2 4 4 5 4 3 1 1 3 3 4 4 5 5 5 5 6 5 5 5 5 4 3 3 4 4 4 3 3 3 3 2 2
5 3 3 2 2 3 3 4 5 4 5 5 3 7 5 6 5 4 4 4 5 5 5 5 5 5 5 5 5 5 5 4 4 4 3 3 3 3 3 3 3 2 2 2
4 6 2 4 3 1 3 5 6 5 3 4 3 8 5 3 3 3 3 3 3 4 4 4 5 5 5 5 5 5 5 5 4 4 3 3 3 3 3 3 2 2 2 2
7 6 2 5 5 2 2 2 3 5 5 4 4 8 3 2 0 1 2 2 3 4 4 4 5 5 5 5 5 5 5 4 4 4 4 3 3 3 3 3 2 2 2 2
7 5 7 8 7 4 2 2 4 5 4 4 7 7 5 3 1 1 1 2 3 3 4 4 4 4 4 4 4 4 4 4 4 4 4 3 2 3 3 3 3 3 3 2
5 4 4 4 3 3 3 3 4 5 7 7 7 7 8 5 4 3 2 3 4 3 4 4 4 3 4 4 4 4 4 3 3 3 3 3 2 2 3 3 3 3 3 3
3 4 2 1 1 2 1 2 3 4 4 4 3 6 5 2 2 2 3 4 4 5 5 4 3 3 4 4 5 4 3 3 3 4 3 2 2 2 2 3 3 3 2 2
2 5 4 2 2 2 2 4 4 3 2 4 5 6 1 2 4 4 4 4 4 4 5 5 5 5 5 5 5 5 4 4 4 3 2 2 2 3 2 3 3 3 3 3
6 5 4 2 2 3 6 2 2 3 0 1 2 2 2 2 1 0 1 3 3 4 4 4 4 4 3 3 3 3 4 4 3 3 2 2 2 2 2 2 3 4 3 3
4 7 5 4 3 3 4 1 1 2 1 1 1 0 2 3 3 3 1 1 2 3 3 3 3 3 3 3 4 4 4 3 3 2 2 2 3 2 2 3 4 3 3 3
5 5 6 4 4 5 5 3 1 3 2 2 2 3 3 4 1 3 1 1 0 0 1 2 2 3 3 3 4 4 4 3 3 3 3 2 3 3 3 3 3 3 3 3
4 4 4 4 3 5 4 4 1 3 6 2 3 3 4 3 4 2 1 0 1 2 2 3 3 2 2 3 4 4 3 4 3 2 2 2 2 2 2 2 2 2 2 2
4 3 3 4 3 5 4 2 3 4 1 1 1 2 3 2 1 1 1 0 1 2 2 3 3 2 2 3 4 3 3 3 1 2 2 2 2 2 1 1 1 1 2 2
2 4 5 6 5 4 3 2 2 2 1 1 1 2 4 3 2 1 1 1 0 1 2 2 3 2 1 2 3 4 3 2 1 1 1 2 1 1 1 2 2 1 2 2
1 1 2 0 2 3 3 2 1 0 1 1 2 2 3 3 2 1 0 1 1 0 1 1 2 2 1 1 2 3 2 2 2 2 2 2 1 1 1 2 2 2 3 3
2 1 2 1 2 2 4 2 1 1 2 1 1 1 2 3 2 1 1 1 0 0 0 1 1 2 2 1 2 2 2 3 2 2 2 2 2 2 2 2 2 3 4 5
3 4 4 5 5 4 4 4 2 1 0 1 1 1 1 2 2 1 1 1 0 0 0 0 0 1 1 1 2 1 2 3 3 3 3 2 2 2 2 2 2 4 5 5
Wind_Direction
87 85 202 212 194 191 198 217 254 261 234 174 235 252 233 189 190 191 190 192 199 206 196 174 172 165 159 159 157 159 158 156 145 136 139 138 150 146 133 172 152 148 150 160
49 252 230 194 179 171 203 234 262 288 301 173 241 272 256 197 200 198 194 196 202 193 173 165 160 161 167 170 167 163 170 167 166 162 150 143 137 141 155 197 64 84 119 158
194 239 188 157 172 177 239 210 225 233 348 36 57 324 291 227 201 208 206 197 191 190 188 177 171 173 169 172 178 178 179 172 167 155 130 112 84 56 39 13 355 351 73 135
229 251 179 171 213 183 257 231 204 170 100 306 74 289 285 245 231 220 218 206 197 192 181 175 172 176 180 184 176 171 171 166 162 155 153 153 156 174 203 198 218 346 40 95
242 206 180 213 225 183 220 154 130 123 130 38 5 183 287 316 247 242 221 211 204 193 181 180 180 181 179 174 169 162 157 163 161 162 166 161 165 177 161 129 119 49 6 21
235 225 197 212 232 180 150 65 54 51 71 338 244 173 277 236 224 241 222 214 205 191 181 178 169 162 167 166 163 158 156 167 167 167 170 172 174 168 156 162 175 202 258 345
321 302 258 172 68 18 98 89 35 4 11 254 252 198 250 243 229 222 219 213 199 183 176 169 165 168 176 175 175 170 167 173 174 174 181 185 183 176 179 183 185 184 187 203
192 282 254 196 181 184 171 142 158 193 222 272 295 237 256 259 248 233 210 186 173 170 172 172 175 178 183 181 178 174 174 179 177 180 187 183 177 177 184 183 178 186 199 204
174 246 278 239 187 144 138 170 163 132 146 274 278 285 300 320 13 86 118 135 166 169 169 172 172 175 178 178 179 177 174 177 179 178 175 169 169 172 176 173 173 184 193 180
157 214 288 300 82 50 128 142 105 119 143 243 288 278 262 281 273 251 198 177 183 163 161 167 165 167 179 176 171 165 166 173 173 168 178 175 171 173 169 162 173 183 186 166
134 157 307 12 142 173 101 94 102 110 146 157 240 269 233 226 221 216 216 199 182 173 168 170 165 166 164 154 159 163 166 163 163 167 164 161 163 164 159 167 184 184 172 161
142 126 238 274 278 168 145 156 147 148 197 169 177 265 290 233 217 204 204 190 179 172 162 152 148 149 154 158 163 165 166 166 170 164 155 157 156 153 162 177 183 174 166 164
138 118 83 342 341 8 90 136 143 123 118 149 173 263 325 6 20 191 177 167 157 151 143 140 142 157 164 164 168 167 165 166 158 150 149 141 159 165 175 183 173 172 177 173
121 121 161 193 215 198 190 184 160 131 144 189 217 245 283 282 247 215 164 151 150 151 151 147 149 160 159 161 162 162 159 155 151 148 152 155 180 183 178 171 172 177 180 181
117 149 198 218 210 181 197 207 185 184 184 189 226 225 242 229 214 200 174 144 140 147 154 160 164 167 157 151 146 149 149 146 148 150 161 182 185 183 165 163 177 174 177 186
100 146 157 275 210 174 204 258 208 212 201 212 231 254 246 191 165 161 169 162 166 168 166 163 163 169 171 166 161 153 149 150 153 162 175 177 163 163 177 177 178 173 175 177
119 131 124 253 293 73 280 249 211 198 198 183 217 244 189 161 183 191 189 179 182 181 175 169 171 185 185 182 170 166 161 155 156 160 166 171 177 188 198 198 180 189 194 184
139 122 127 134 90 205 240 255 173 158 213 225 238 245 187 191 221 298 190 181 180 174 176 178 171 172 170 163 157 155 145 150 157 168 170 168 183 205 203 197 208 207 204 202
138 132 119 123 158 257 289 288 164 159 286 277 187 138 99 93 50 357 345 155 181 185 180 174 158 153 150 147 147 142 147 152 164 187 191 194 195 205 209 215 230 217 204 213
61 90 112 124 148 218 246 291 292 117 283 264 165 172 150 109 95 268 298 94 127 125 139 141 137 137 149 158 151 149 164 171 194 206 205 201 198 202 218 226 238 222 201 211
46 52 101 136 180 253 264 302 64 154 239 238 177 181 166 176 205 225 249 164 180 163 148 142 138 146 166 158 152 163 180 203 205 195 192 195 197 205 221 225 242 219 200 204
151 134 153 140 164 245 308 18 161 212 250 159 152 160 152 153 102 97 70 104 147 146 141 142 139 151 151 155 155 176 220 228 194 180 197 212 217 217 207 205 236 229 197 207
172 183 176 180 203 247 283 247 246 172 168 216 173 165 141 130 130 108 57 1 341 157 150 150 151 149 148 163 164 186 221 198 180 197 229 240 241 224 198 198 207 225 214 210
276 130 131 184 280 288 301 311 338 104 161 190 170 148 135 141 151 134 73 345 356 62 141 141 136 149 183 181 191 191 184 177 179 209 231 237 238 261 253 228 212 211 229 221
226 149 117 232 270 319 328 321 317 66 90 78 83 130 147 144 158 163 175 253 269 341 316 158 165 190 217 210 222 202 174 164 183 217 225 231 231 241 256 257 243 232 236 217
210 177 173 214 220 197 254 278 272 149 154 166 142 98 114 148 168 163 196 248 239 288 6 54 180 221 251 251 258 242 185 171 178 204 220 222 223 235 250 262 291 272 252 244